Location: De Greiden
(52.9496°N, 5.9137°E)
Time: 23:48:11
(UTC+00:00)

MetOp-A - Pass Details

Date: 24 January 2021
Orbit: 819 x 821 km, 98.5° (Epoch: 04 March)

Event Time Altitude Azimuth Distance (km) Brightness Sun altitude
Exits shadow 19:21:06 78° 280° (W) 846 4.1 -28.9°
Drops below altitude 10° 19:26:20 10° 343° (NNW) 2,431 6.8 -29.7°
Sets 19:28:42 0° 345° (NNW) 3,368 7.6 -30.1°
